,,PA_Meas_PMT16A,,PR_Meas_QMR101_102,,RH_Meas_QMH101,,SR_Meas_QMS101,,TA_Meas_QMH101,,GenWind,,GenWind,
time,status,PA,status,PR,status,RH,status,SR,status,TA,status,DirAvg,status,SpdAvg,
2012-05-12, 00:00:04,VALID,917.916,VALID,0,VALID,94.2026,VALID,0,VALID,20.1498,VALID,5,VALID,0,
2012-05-12, 00:01:04,VALID,917.884,VALID,0,VALID,94.1034,VALID,0,VALID,20.1108,VALID,5,VALID,0,
2012-05-12, 00:02:04,VALID,917.871,VALID,0,VALID,94.1492,VALID,0,VALID,20.1108,VALID,5,VALID,0,
2012-05-12, 00:03:04,VALID,917.839,VALID,0,VALID,94.2712,VALID,0,VALID,20.1513,VALID,5,VALID,0,
2012-05-12, 00:04:04,VALID,917.842,VALID,0,VALID,94.4541,VALID,0,VALID,20.1513,VALID,5,VALID,0,
2012-05-12, 00:05:04,VALID,917.83,VALID,0,VALID,94.4617,VALID,0,VALID,20.1303,VALID,5,VALID,0,
2012-05-12, 00:06:04,VALID,917.819,VALID,0,VALID,94.4999,VALID,0,VALID,20.1303,VALID,5,VALID,0,
2012-05-12, 00:07:04,VALID,917.795,VALID,0,VALID,94.5456,VALID,0,VALID,20.1303,VALID,5,VALID,0,
2012-05-12, 00:08:04,VALID,917.797,VALID,0,VALID,94.5304,VALID,0,VALID,20.1513,VALID,5,VALID,0,
2012-05-12, 00:09:04,VALID,917.753,VALID,0,VALID,94.5685,VALID,0,VALID,20.1498,VALID,5,VALID,0,
2012-05-12, 00:10:04,VALID,917.768,VALID,0,VALID,94.599,VALID,0,VALID,20.1498,VALID,5,VALID,0,
2012-05-12, 00:11:04,VALID,917.766,VALID,0,VALID,94.6447,VALID,0,VALID,20.1888,VALID,5,VALID,0,
2012-05-12, 00:12:04,VALID,917.75,VALID,0,VALID,94.6066,VALID,0.107441,VALID,20.1888,VALID,5,VALID,0,
2012-05-12, 00:13:04,VALID,917.72,VALID,0,VALID,94.7209,VALID,0,VALID,20.2083,VALID,5,VALID,0,
2012-05-12, 00:14:04,VALID,917.711,VALID,0,VALID,94.6828,VALID,0,VALID,20.2083,VALID,5,VALID,0,
2012-05-12, 00:15:04,VALID,917.677,VALID,0,VALID,94.4465,VALID,0,VALID,20.1693,VALID,5,VALID,0,
2012-05-12, 00:16:04,VALID,917.653,VALID,0,VALID,94.4846,VALID,0,VALID,20.1498,VALID,5,VALID,0,
2012-05-12, 00:17:04,VALID,917.643,VALID,0,VALID,94.6218,VALID,0,VALID,20.1288,VALID,5,VALID,0,
2012-05-12, 00:18:04,VALID,917.639,VALID,0,VALID,94.7972,VALID,0,VALID,20.1498,VALID,5,VALID,0,
2012-05-12, 00:19:04,VALID,917.578,VALID,0,VALID,94.9192,VALID,0,VALID,20.1303,VALID,5,VALID,0,
2012-05-12, 00:20:04,VALID,917.552,VALID,0,VALID,94.9344,VALID,0,VALID,20.1303,VALID,5,VALID,0,
2012-05-12, 00:21:04,VALID,917.557,VALID,0,VALID,95.0259,VALID,0,VALID,20.1108,VALID,5,VALID,0,
2012-05-12, 00:22:04,VALID,917.557,VALID,0,VALID,95.1936,VALID,0,VALID,20.1108,VALID,5,VALID,0,
2012-05-12, 00:23:04,VALID,917.54,VALID,0,VALID,95.2012,VALID,0,VALID,20.1108,VALID,5,VALID,0,
2012-05-12, 00:24:04,VALID,917.558,VALID,0,VALID,95.2546,VALID,0,VALID,20.1093,VALID,5,VALID,0,
2012-05-12, 00:25:04,VALID,917.56,VALID,0,VALID,95.2241,VALID,0,VALID,20.1108,VALID,5,VALID,0,
2012-05-12, 00:26:04,VALID,917.556,VALID,0,VALID,95.2393,VALID,0,VALID,20.1303,VALID,5,VALID,0,
2012-05-12, 00:27:04,VALID,917.536,VALID,0,VALID,95.1555,VALID,0,VALID,20.1303,VALID,5,VALID,0,
2012-05-12, 00:28:04,VALID,917.519,VALID,0,VALID,95.2165,VALID,0,VALID,20.1498,VALID,5,VALID,0,
2012-05-12, 00:29:04,VALID,917.48,VALID,0,VALID,95.3079,VALID,0,VALID,20.1483,VALID,5,VALID,0,
2012-05-12, 00:30:04,VALID,917.471,VALID,0,VALID,95.2775,VALID,0,VALID,20.1888,VALID,5,VALID,0,
2012-05-12, 00:31:04,VALID,917.43,VALID,0,VALID,95.1326,VALID,0,VALID,20.1483,VALID,5,VALID,0,
2012-05-12, 00:32:04,VALID,917.428,VALID,0,VALID,95.0488,VALID,0,VALID,20.1108,VALID,5,VALID,0,
2012-05-12, 00:33:04,VALID,917.388,VALID,0,VALID,94.881,VALID,0,VALID,20.0913,VALID,5,VALID,0,
2012-05-12, 00:34:04,VALID,917.375,VALID,0,VALID,94.8582,VALID,0,VALID,20.0328,VALID,5,VALID,0,
2012-05-12, 00:35:04,VALID,917.376,VALID,0,VALID,94.881,VALID,0,VALID,19.9938,VALID,5,VALID,0,
2012-05-12, 00:36:04,VALID,917.376,VALID,0,VALID,94.8505,VALID,0,VALID,19.9143,VALID,5,VALID,0,
2012-05-12, 00:37:04,VALID,917.368,VALID,0,VALID,95.003,VALID,0.107441,VALID,19.8948,VALID,5,VALID,0,
2012-05-12, 00:38:04,VALID,917.354,VALID,0,VALID,95.1174,VALID,0,VALID,19.8963,VALID,5,VALID,0,
2012-05-12, 00:39:04,VALID,917.324,VALID,0,VALID,95.3079,VALID,0,VALID,19.9158,VALID,5,VALID,0,
2012-05-12, 00:40:04,VALID,917.309,VALID,0,VALID,95.3689,VALID,0,VALID,19.9353,VALID,5,VALID,0,
2012-05-12, 00:41:04,VALID,917.28,VALID,0,VALID,95.4452,VALID,0,VALID,19.9548,VALID,5,VALID,0,
2012-05-12, 00:42:04,VALID,917.291,VALID,0,VALID,95.5138,VALID,0,VALID,19.9548,VALID,5,VALID,0,
2012-05-12, 00:43:04,VALID,917.253,VALID,0,VALID,95.4375,VALID,0,VALID,19.9548,VALID,5,VALID,0,
2012-05-12, 00:44:04,VALID,917.263,VALID,0,VALID,95.4223,VALID,0,VALID,19.9353,VALID,5,VALID,0,
2012-05-12, 00:45:04,VALID,917.234,VALID,0,VALID,95.4452,VALID,0,VALID,19.9353,VALID,5,VALID,0,
2012-05-12, 00:46:04,VALID,917.234,VALID,0,VALID,95.2088,VALID,0,VALID,19.8963,VALID,5,VALID,0,
2012-05-12, 00:47:04,VALID,917.236,VALID,0,VALID,95.0411,VALID,0,VALID,19.8573,VALID,5,VALID,0,
2012-05-12, 00:48:04,VALID,917.25,VALID,0,VALID,95.1326,VALID,0,VALID,19.8573,VALID,5,VALID,0,
2012-05-12, 00:49:04,VALID,917.273,VALID,0,VALID,95.0411,VALID,0,VALID,19.8573,VALID,5,VALID,0,
2012-05-12, 00:50:04,VALID,917.264,VALID,0,VALID,95.1021,VALID,0,VALID,19.8768,VALID,5,VALID,0,
2012-05-12, 00:51:04,VALID,917.295,VALID,0,VALID,95.1555,VALID,0,VALID,19.9353,VALID,5,VALID,0,
2012-05-12, 00:52:04,VALID,917.282,VALID,0,VALID,95.3384,VALID,0,VALID,19.9743,VALID,5,VALID,0,
2012-05-12, 00:53:04,VALID,917.299,VALID,0,VALID,95.3308,VALID,0,VALID,19.9728,VALID,5,VALID,0,
2012-05-12, 00:54:04,VALID,917.285,VALID,0,VALID,95.4071,VALID,0,VALID,19.9923,VALID,5,VALID,0,
2012-05-12, 00:55:04,VALID,917.273,VALID,0,VALID,95.247,VALID,0,VALID,19.9938,VALID,5,VALID,0,
2012-05-12, 00:56:04,VALID,917.294,VALID,0,VALID,95.2622,VALID,0,VALID,19.9743,VALID,5,VALID,0,
2012-05-12, 00:57:04,VALID,917.278,VALID,0,VALID,95.5367,VALID,0,VALID,20.0133,VALID,5,VALID,0,
2012-05-12, 00:58:04,VALID,917.304,VALID,0,VALID,95.3766,VALID,0,VALID,19.9338,VALID,5,VALID,0,
2012-05-12, 00:59:04,VALID,917.314,VALID,0,VALID,95.3079,VALID,0.107441,VALID,19.9353,VALID,5,VALID,0,
2012-05-12, 01:00:04,VALID,917.296,VALID,0,VALID,95.3613,VALID,0,VALID,19.8558,VALID,5,VALID,0,
2012-05-12, 01:01:04,VALID,917.324,VALID,0,VALID,95.6053,VALID,0,VALID,19.9158,VALID,351,VALID,0,
2012-05-12, 01:02:04,VALID,917.333,VALID,0,VALID,95.7806,VALID,0,VALID,19.9548,VALID,335,VALID,0,
2012-05-12, 01:03:04,VALID,917.338,VALID,0,VALID,95.7654,VALID,0,VALID,19.9743,VALID,335,VALID,0,
2012-05-12, 01:04:04,VALID,917.307,VALID,0,VALID,95.7425,VALID,0,VALID,19.9938,VALID,335,VALID,0,
2012-05-12, 01:05:04,VALID,917.282,VALID,0,VALID,95.6586,VALID,0,VALID,19.9743,VALID,335,VALID,0,
2012-05-12, 01:06:04,VALID,917.257,VALID,0,VALID,95.6662,VALID,0,VALID,19.9548,VALID,335,VALID,0,
2012-05-12, 01:07:04,VALID,917.251,VALID,0,VALID,95.7806,VALID,0.107441,VALID,19.9548,VALID,335,VALID,0,
2012-05-12, 01:08:04,VALID,917.244,VALID,0,VALID,95.8187,VALID,0,VALID,19.9353,VALID,335,VALID,0,
2012-05-12, 01:09:04,VALID,917.194,VALID,0,VALID,95.8873,VALID,0,VALID,19.9353,VALID,335,VALID,0,
2012-05-12, 01:10:04,VALID,917.235,VALID,0,VALID,95.9636,VALID,0,VALID,19.9353,VALID,335,VALID,0,
2012-05-12, 01:11:04,VALID,917.248,VALID,0,VALID,96.055,VALID,0,VALID,20.0148,VALID,335,VALID,0,
2012-05-12, 01:12:04,VALID,917.257,VALID,0,VALID,96.0627,VALID,0,VALID,19.9743,VALID,335,VALID,0,
2012-05-12, 01:13:04,VALID,917.265,VALID,0,VALID,95.9864,VALID,0,VALID,19.9743,INVALID,360,VALID,0,
2012-05-12, 01:14:04,VALID,917.303,VALID,0,VALID,96.0093,VALID,0,VALID,19.9743,VALID,335,VALID,0,
2012-05-12, 01:15:04,VALID,917.321,VALID,0,VALID,96.0474,VALID,0,VALID,20.0133,VALID,335,VALID,0,
2012-05-12, 01:16:04,VALID,917.329,VALID,0,VALID,96.055,VALID,0,VALID,20.0538,VALID,335,VALID,0,
2012-05-12, 01:17:04,VALID,917.314,VALID,0,VALID,96.0703,VALID,0,VALID,20.0523,VALID,335,VALID,0,
2012-05-12, 01:18:04,VALID,917.286,VALID,0,VALID,96.0627,VALID,0,VALID,20.0718,VALID,335,VALID,0,
2012-05-12, 01:19:04,VALID,917.276,VALID,0,VALID,95.9254,VALID,0,VALID,20.0523,VALID,335,VALID,0,
2012-05-12, 01:20:04,VALID,917.264,VALID,0,VALID,95.9178,VALID,0,VALID,20.0328,VALID,335,VALID,0,
2012-05-12, 01:21:04,VALID,917.257,VALID,0,VALID,95.9254,VALID,0,VALID,20.0133,VALID,9,VALID,0,
2012-05-12, 01:22:04,VALID,917.218,VALID,0,VALID,95.9407,VALID,0,VALID,20.0148,VALID,353,VALID,0,
2012-05-12, 01:23:04,VALID,917.207,VALID,0,VALID,95.9941,VALID,0,VALID,19.9938,VALID,345,VALID,0,
2012-05-12, 01:24:04,VALID,917.184,VALID,0,VALID,96.055,VALID,0,VALID,19.9758,VALID,345,VALID,0,
2012-05-12, 01:25:04,VALID,917.181,VALID,0,VALID,96.1313,VALID,0,VALID,19.9743,INVALID,360,VALID,0,
2012-05-12, 01:26:04,VALID,917.114,VALID,0,VALID,96.177,VALID,0,VALID,19.9743,VALID,345,VALID,0,
2012-05-12, 01:27:04,VALID,917.151,VALID,0,VALID,96.1694,VALID,0,VALID,19.9758,VALID,345,VALID,0,
2012-05-12, 01:28:04,VALID,917.137,VALID,0,VALID,96.1923,VALID,0,VALID,19.9758,VALID,348,VALID,0,
2012-05-12, 01:29:04,VALID,917.119,VALID,0,VALID,96.1999,VALID,0,VALID,19.9548,VALID,356,VALID,0,
2012-05-12, 01:30:04,VALID,917.148,VALID,0,VALID,96.2304,VALID,0,VALID,19.9158,VALID,356,VALID,0,
2012-05-12, 01:31:04,VALID,917.134,VALID,0,VALID,96.2533,VALID,0,VALID,19.9158,VALID,12,VALID,0,
2012-05-12, 01:32:04,VALID,917.134,VALID,0,VALID,96.3066,VALID,0,VALID,19.9368,VALID,6,VALID,0,
2012-05-12, 01:33:04,VALID,917.132,VALID,0,VALID,96.3219,VALID,0,VALID,19.9158,VALID,15,VALID,0,
2012-05-12, 01:34:04,VALID,917.154,VALID,0,VALID,96.3371,VALID,0,VALID,19.9353,VALID,18,VALID,0,
2012-05-12, 01:35:04,VALID,917.154,VALID,0,VALID,96.3295,VALID,0,VALID,19.9548,VALID,3,VALID,0,
2012-05-12, 01:36:04,VALID,917.165,VALID,0,VALID,96.3142,VALID,0,VALID,19.9548,VALID,346,VALID,0,
2012-05-12, 01:37:04,VALID,917.146,VALID,0,VALID,96.2837,VALID,0,VALID,19.9548,VALID,6,VALID,0,
2012-05-12, 01:38:04,VALID,917.133,VALID,0,VALID,96.2456,VALID,0,VALID,19.9758,VALID,6,VALID,0,
2012-05-12, 01:39:04,VALID,917.107,VALID,0,VALID,96.2228,VALID,0,VALID,19.9938,VALID,6,VALID,0,
2012-05-12, 01:40:04,VALID,917.124,VALID,0,VALID,96.1846,VALID,0,VALID,20.0148,VALID,6,VALID,0,
2012-05-12, 01:41:04,VALID,917.077,VALID,0,VALID,96.1465,VALID,0,VALID,20.0133,VALID,6,VALID,0,
2012-05-12, 01:42:04,VALID,917.052,VALID,0,VALID,96.1236,VALID,0,VALID,20.0133,VALID,6,VALID,0,
2012-05-12, 01:43:04,VALID,917.039,VALID,0,VALID,96.0932,VALID,0,VALID,20.0328,VALID,6,VALID,0,
2012-05-12, 01:44:04,VALID,917.015,VALID,0,VALID,96.0017,VALID,0,VALID,20.0328,VALID,6,VALID,0,
2012-05-12, 01:45:04,VALID,917.036,VALID,0,VALID,96.0017,VALID,0,VALID,20.0718,VALID,6,VALID,0,
2012-05-12, 01:46:04,VALID,917.025,VALID,0,VALID,95.9559,VALID,0,VALID,20.0913,VALID,6,VALID,0,
2012-05-12, 01:47:04,VALID,917.016,VALID,0,VALID,95.8111,VALID,0,VALID,20.1108,VALID,6,VALID,0,
2012-05-12, 01:48:04,VALID,917.082,VALID,0,VALID,95.7882,VALID,0,VALID,20.1303,VALID,6,VALID,0,
2012-05-12, 01:49:04,VALID,917.103,VALID,0,VALID,95.6967,VALID,0,VALID,20.1708,VALID,6,VALID,0,
2012-05-12, 01:50:04,VALID,917.147,VALID,0,VALID,95.5824,VALID,0,VALID,20.1693,VALID,6,VALID,0,
2012-05-12, 01:51:04,VALID,917.132,VALID,0,VALID,95.4985,VALID,0,VALID,20.1498,VALID,6,VALID,0,
2012-05-12, 01:52:04,VALID,917.159,VALID,0,VALID,95.3918,VALID,0,VALID,20.1693,VALID,6,VALID,0,
2012-05-12, 01:53:04,VALID,917.106,VALID,0,VALID,95.3156,VALID,0,VALID,20.1693,VALID,6,VALID,0,
2012-05-12, 01:54:04,VALID,917.124,VALID,0,VALID,95.2622,VALID,0,VALID,20.1888,VALID,6,VALID,0,
2012-05-12, 01:55:04,VALID,917.095,VALID,0,VALID,95.1631,VALID,0,VALID,20.1903,VALID,6,VALID,0,
2012-05-12, 01:56:04,VALID,917.125,VALID,0,VALID,95.1707,VALID,0,VALID,20.1888,VALID,6,VALID,0,
2012-05-12, 01:57:04,VALID,917.096,VALID,0,VALID,95.1479,VALID,0,VALID,20.2293,VALID,6,VALID,0,
2012-05-12, 01:58:04,VALID,917.087,VALID,0,VALID,95.1326,VALID,0,VALID,20.2278,VALID,6,VALID,0,
2012-05-12, 01:59:04,VALID,917.061,VALID,0,VALID,95.0564,VALID,0,VALID,20.2083,VALID,6,VALID,0,
2012-05-12, 02:00:04,VALID,917.086,VALID,0,VALID,94.9115,VALID,0,VALID,20.2083,VALID,6,VALID,0,
2012-05-12, 02:01:04,VALID,917.04,VALID,0,VALID,94.8582,VALID,0,VALID,20.2278,VALID,6,VALID,0,
2012-05-12, 02:02:04,VALID,917.05,VALID,0,VALID,94.82,VALID,0,VALID,20.2668,VALID,6,VALID,0,
2012-05-12, 02:03:04,VALID,917.061,VALID,0,VALID,94.7667,VALID,0,VALID,20.2668,VALID,6,VALID,0,
2012-05-12, 02:04:04,VALID,917.048,VALID,0,VALID,94.6905,VALID,0,VALID,20.2879,VALID,6,VALID,0,
2012-05-12, 02:05:04,VALID,917.007,VALID,0,VALID,94.6752,VALID,0,VALID,20.2879,VALID,6,VALID,0,
2012-05-12, 02:06:04,VALID,917.004,VALID,0,VALID,94.6905,VALID,0,VALID,20.2879,VALID,6,VALID,0,
2012-05-12, 02:07:04,VALID,916.962,VALID,0,VALID,94.6066,VALID,0,VALID,20.2879,VALID,6,VALID,0,
2012-05-12, 02:08:04,VALID,916.939,VALID,0,VALID,94.4389,VALID,0,VALID,20.2668,VALID,6,VALID,0,
2012-05-12, 02:09:04,VALID,916.966,VALID,0,VALID,94.3093,VALID,0,VALID,20.2473,VALID,6,VALID,0,
2012-05-12, 02:10:04,VALID,916.92,VALID,0,VALID,94.2483,VALID,0,VALID,20.2473,VALID,6,VALID,0,
2012-05-12, 02:11:04,VALID,916.951,VALID,0,VALID,94.2788,VALID,0,VALID,20.2083,VALID,6,VALID,0,
2012-05-12, 02:12:04,VALID,916.963,VALID,0,VALID,94.3321,VALID,0,VALID,20.2278,VALID,6,VALID,0,
2012-05-12, 02:13:04,VALID,916.964,VALID,0,VALID,94.3626,VALID,0,VALID,20.2668,VALID,6,VALID,0,
2012-05-12, 02:14:04,VALID,916.968,VALID,0,VALID,94.3169,VALID,0,VALID,20.3058,VALID,6,VALID,0,
2012-05-12, 02:15:04,VALID,916.93,VALID,0,VALID,94.2102,VALID,0,VALID,20.3448,VALID,6,VALID,0,
2012-05-12, 02:16:04,VALID,916.907,VALID,0,VALID,94.0882,VALID,0,VALID,20.3854,VALID,6,VALID,0,
2012-05-12, 02:17:04,VALID,916.905,VALID,0,VALID,94.0348,VALID,0,VALID,20.4033,VALID,6,VALID,0,
2012-05-12, 02:18:04,VALID,916.9,VALID,0,VALID,93.8138,VALID,0,VALID,20.4228,VALID,6,VALID,0,
2012-05-12, 02:19:04,VALID,916.929,VALID,0,VALID,93.6003,VALID,0,VALID,20.4408,VALID,6,VALID,0,
2012-05-12, 02:20:04,VALID,916.926,VALID,0,VALID,93.4021,VALID,0,VALID,20.5219,VALID,6,VALID,0,
2012-05-12, 02:21:04,VALID,916.975,VALID,0,VALID,93.12,VALID,0,VALID,20.5204,VALID,6,VALID,0,
2012-05-12, 02:22:04,VALID,916.966,VALID,0,VALID,92.8608,VALID,0,VALID,20.5399,VALID,6,VALID,0,
2012-05-12, 02:23:04,VALID,916.986,VALID,0,VALID,92.6931,VALID,0,VALID,20.5594,VALID,6,VALID,0,
2012-05-12, 02:24:04,VALID,916.991,VALID,0,VALID,92.7007,VALID,0,VALID,20.5594,VALID,6,VALID,0,
2012-05-12, 02:25:04,VALID,917.004,VALID,0,VALID,92.7693,VALID,0,VALID,20.5594,VALID,6,VALID,0,
2012-05-12, 02:26:04,VALID,917.01,VALID,0,VALID,92.9904,VALID,0,VALID,20.5594,VALID,6,VALID,0,
2012-05-12, 02:27:04,VALID,917.01,VALID,0,VALID,93.2649,VALID,0,VALID,20.5399,VALID,6,VALID,0,
2012-05-12, 02:28:04,VALID,917.021,VALID,0,VALID,93.3716,VALID,0,VALID,20.5204,VALID,6,VALID,0,
2012-05-12, 02:29:04,VALID,916.976,VALID,0,VALID,93.4402,VALID,0,VALID,20.5219,VALID,6,VALID,0,
2012-05-12, 02:30:04,VALID,916.983,VALID,0,VALID,93.6384,VALID,0,VALID,20.4618,VALID,6,VALID,0,
2012-05-12, 02:31:04,VALID,917.022,VALID,0,VALID,93.7985,VALID,0,VALID,20.4439,VALID,6,VALID,0,
2012-05-12, 02:32:04,VALID,916.977,VALID,0,VALID,93.9281,VALID,0,VALID,20.3854,VALID,6,VALID,0,
2012-05-12, 02:33:04,VALID,916.969,VALID,0,VALID,94.1263,VALID,0,VALID,20.3643,VALID,6,VALID,0,
2012-05-12, 02:34:04,VALID,916.963,VALID,0,VALID,94.3093,VALID,0,VALID,20.3659,VALID,6,VALID,0,
2012-05-12, 02:35:04,VALID,916.946,VALID,0,VALID,94.416,VALID,0,VALID,20.3448,VALID,6,VALID,0,
2012-05-12, 02:36:04,VALID,916.962,VALID,0,VALID,94.5609,VALID,0,VALID,20.3659,VALID,6,VALID,0,
2012-05-12, 02:37:04,VALID,916.945,VALID,0,VALID,94.6447,VALID,0,VALID,20.3838,VALID,6,VALID,0,
2012-05-12, 02:38:04,VALID,916.94,VALID,0,VALID,94.6905,VALID,0,VALID,20.4033,VALID,6,VALID,0,
2012-05-12, 02:39:04,VALID,916.941,VALID,0,VALID,94.7057,VALID,0,VALID,20.4033,VALID,6,VALID,0,
2012-05-12, 02:40:04,VALID,916.945,VALID,0,VALID,94.7819,VALID,0,VALID,20.4228,VALID,6,VALID,0,
2012-05-12, 02:41:04,VALID,916.933,VALID,0,VALID,94.7591,VALID,0,VALID,20.4634,VALID,6,VALID,0,
2012-05-12, 02:42:04,VALID,916.916,VALID,0,VALID,94.8582,VALID,0,VALID,20.4423,VALID,6,VALID,0,
2012-05-12, 02:43:04,VALID,916.905,VALID,0,VALID,94.6295,VALID,0,VALID,20.4244,VALID,2,VALID,0,
2012-05-12, 02:44:04,VALID,916.856,VALID,0,VALID,94.6447,VALID,0,VALID,20.3643,VALID,2,VALID,0,
2012-05-12, 02:45:04,VALID,916.833,VALID,0,VALID,94.6981,VALID,0,VALID,20.3433,VALID,352,VALID,0,
2012-05-12, 02:46:04,VALID,916.792,VALID,0,VALID,94.7362,VALID,0,VALID,20.3253,VALID,350,VALID,0,
2012-05-12, 02:47:04,VALID,916.799,VALID,0,VALID,94.8582,VALID,0,VALID,20.3269,VALID,350,VALID,0,
2012-05-12, 02:48:04,VALID,916.775,VALID,0,VALID,94.942,VALID,0,VALID,20.2863,VALID,350,VALID,0,
2012-05-12, 02:49:04,VALID,916.788,VALID,0,VALID,95.1631,VALID,0,VALID,20.2863,VALID,350,VALID,0,
2012-05-12, 02:50:04,VALID,916.748,VALID,0,VALID,95.2317,VALID,0,VALID,20.2863,VALID,350,VALID,0,
2012-05-12, 02:51:04,VALID,916.783,VALID,0,VALID,95.3537,VALID,0,VALID,20.2637,VALID,350,VALID,0,
2012-05-12, 02:52:04,VALID,916.793,VALID,0,VALID,95.4299,VALID,0,VALID,20.3058,VALID,350,VALID,0,
2012-05-12, 02:53:04,VALID,916.766,VALID,0,VALID,95.3918,VALID,0,VALID,20.2668,VALID,350,VALID,0,
2012-05-12, 02:54:04,VALID,916.782,VALID,0,VALID,95.3232,VALID,0,VALID,20.2848,VALID,350,VALID,0,
2012-05-12, 02:55:04,VALID,916.778,VALID,0,VALID,95.3766,VALID,0,VALID,20.2863,VALID,350,VALID,0,
2012-05-12, 02:56:04,VALID,916.78,VALID,0,VALID,95.4147,VALID,0,VALID,20.2653,VALID,350,VALID,0,
2012-05-12, 02:57:04,VALID,916.76,VALID,0,VALID,95.4299,VALID,0,VALID,20.2653,VALID,350,VALID,0,
2012-05-12, 02:58:04,VALID,916.759,VALID,0,VALID,95.4528,VALID,0,VALID,20.369,VALID,350,VALID,0,
2012-05-12, 02:59:04,VALID,916.745,VALID,0,VALID,95.5443,VALID,0,VALID,20.3269,INVALID,360,VALID,0,
2012-05-12, 03:00:04,VALID,916.697,VALID,0,VALID,95.59,VALID,0,VALID,20.369,VALID,350,VALID,0,
2012-05-12, 03:01:04,VALID,916.667,VALID,0,VALID,95.6586,VALID,0,VALID,20.3253,VALID,350,VALID,0,
2012-05-12, 03:02:04,VALID,916.677,VALID,0,VALID,95.7882,VALID,0,VALID,20.3659,VALID,350,VALID,0,
2012-05-12, 03:03:04,VALID,916.65,VALID,0,VALID,95.651,VALID,0,VALID,20.2637,VALID,350,VALID,0,
2012-05-12, 03:04:04,VALID,916.636,VALID,0,VALID,95.7044,VALID,0,VALID,20.2863,VALID,350,VALID,0,
2012-05-12, 03:05:04,VALID,916.603,VALID,0,VALID,95.7349,VALID,0,VALID,20.3074,VALID,350,VALID,0,
2012-05-12, 03:06:04,VALID,916.571,VALID,0,VALID,95.8111,VALID,0,VALID,20.2684,VALID,350,VALID,0,
2012-05-12, 03:07:04,VALID,916.571,VALID,0,VALID,95.8873,VALID,0,VALID,20.2473,VALID,350,VALID,0,
2012-05-12, 03:08:04,VALID,916.578,VALID,0,VALID,95.9788,VALID,0,VALID,20.2863,VALID,350,VALID,0,
2012-05-12, 03:09:04,VALID,916.59,VALID,0,VALID,96.0169,VALID,0,VALID,20.2863,VALID,350,VALID,0,
2012-05-12, 03:10:04,VALID,916.624,VALID,0,VALID,96.0169,VALID,0,VALID,20.2863,VALID,350,VALID,0,
2012-05-12, 03:11:04,VALID,916.628,VALID,0,VALID,96.0398,VALID,0,VALID,20.2668,VALID,350,VALID,0,
2012-05-12, 03:12:04,VALID,916.66,VALID,0,VALID,96.0703,VALID,0,VALID,20.2458,VALID,350,VALID,0,
2012-05-12, 03:13:04,VALID,916.654,VALID,0,VALID,96.0703,VALID,0,VALID,20.3074,VALID,350,VALID,0,
2012-05-12, 03:14:04,VALID,916.707,VALID,0,VALID,96.116,VALID,0,VALID,20.3074,VALID,350,VALID,0,
2012-05-12, 03:15:04,VALID,916.691,VALID,0,VALID,96.1846,VALID,0,VALID,20.3479,VALID,350,VALID,0,
2012-05-12, 03:16:04,VALID,916.718,VALID,0,VALID,96.1313,VALID,0,VALID,20.2637,VALID,350,VALID,0,
2012-05-12, 03:17:04,VALID,916.734,VALID,0,VALID,96.0627,VALID,0,VALID,20.369,VALID,350,VALID,0,
2012-05-12, 03:18:04,VALID,916.705,VALID,0,VALID,96.0703,VALID,0,VALID,20.2278,VALID,353,VALID,0,
2012-05-12, 03:19:04,VALID,916.706,VALID,0,VALID,96.1008,VALID,0,VALID,20.2684,VALID,4,VALID,0,
2012-05-12, 03:20:04,VALID,916.705,VALID,0,VALID,96.1694,VALID,0,VALID,20.2879,VALID,4,VALID,0,
2012-05-12, 03:21:04,VALID,916.69,VALID,0,VALID,96.1465,VALID,0,VALID,20.2879,VALID,4,VALID,0,
2012-05-12, 03:22:04,VALID,916.692,VALID,0,VALID,96.116,VALID,0,VALID,20.2489,VALID,4,VALID,0,
2012-05-12, 03:23:05,VALID,916.686,VALID,0,VALID,96.2304,VALID,0,VALID,20.2052,VALID,4,VALID,0,
2012-05-12, 03:24:05,VALID,916.665,VALID,0,VALID,96.1923,VALID,0,VALID,20.2879,VALID,25,VALID,0,
2012-05-12, 03:25:04,VALID,916.664,VALID,0,VALID,96.2304,VALID,0,VALID,20.2848,VALID,25,VALID,0,
2012-05-12, 03:26:05,VALID,916.706,VALID,0,VALID,96.2228,VALID,0.107441,VALID,20.3058,VALID,25,VALID,0,
2012-05-12, 03:27:05,VALID,916.659,VALID,0,VALID,96.1313,VALID,0.107441,VALID,20.369,VALID,25,VALID,0,
2012-05-12, 03:28:05,VALID,916.686,VALID,0,VALID,96.1846,VALID,0,VALID,20.2442,VALID,25,VALID,0,
2012-05-12, 03:29:05,VALID,916.67,VALID,0,VALID,96.1618,VALID,0.107441,VALID,20.2848,VALID,25,VALID,0,
2012-05-12, 03:30:05,VALID,916.648,VALID,0,VALID,96.1999,VALID,0.107441,VALID,20.2427,VALID,25,VALID,0,
2012-05-12, 03:31:05,VALID,916.633,VALID,0,VALID,96.177,VALID,0.107441,VALID,20.2427,VALID,25,VALID,0,
2012-05-12, 03:32:05,VALID,916.605,VALID,0,VALID,96.2228,VALID,0.107441,VALID,20.2427,VALID,25,VALID,0,
2012-05-12, 03:33:05,VALID,916.621,VALID,0,VALID,96.2304,VALID,0,VALID,20.2442,VALID,25,VALID,0,
2012-05-12, 03:34:05,VALID,916.574,VALID,0,VALID,96.2228,VALID,0,VALID,20.4306,VALID,25,VALID,0,
2012-05-12, 03:35:05,VALID,916.554,VALID,0,VALID,96.1084,VALID,0.107441,VALID,20.2458,VALID,25,VALID,0,
2012-05-12, 03:36:05,VALID,916.557,VALID,0,VALID,96.1236,VALID,0.107441,VALID,20.2263,VALID,25,VALID,0,
2012-05-12, 03:37:05,VALID,916.554,VALID,0,VALID,96.2456,VALID,0.107441,VALID,20.3284,VALID,25,VALID,0,
2012-05-12, 03:38:05,VALID,916.541,VALID,0,VALID,96.2075,VALID,0,VALID,20.2052,VALID,25,VALID,0,
2012-05-12, 03:39:05,VALID,916.564,VALID,0,VALID,96.2151,VALID,0.107441,VALID,20.2263,VALID,24,VALID,0,
2012-05-12, 03:40:05,VALID,916.558,VALID,0,VALID,96.1541,VALID,0,VALID,20.2083,VALID,317,VALID,0,
2012-05-12, 03:41:05,VALID,916.541,VALID,0,VALID,96.1999,VALID,0,VALID,20.1857,VALID,317,VALID,0,
2012-05-12, 03:42:05,VALID,916.499,VALID,0,VALID,96.2228,VALID,0.107441,VALID,20.2668,VALID,317,VALID,0,
2012-05-12, 03:43:05,VALID,916.515,VALID,0,VALID,96.2075,VALID,0.107441,VALID,20.2278,VALID,324,VALID,0,
2012-05-12, 03:44:05,VALID,916.492,VALID,0,VALID,96.2304,VALID,0,VALID,20.2668,VALID,324,VALID,0,
2012-05-12, 03:45:05,VALID,916.472,VALID,0,VALID,96.2609,VALID,0,VALID,20.2863,VALID,324,VALID,0,
2012-05-12, 03:46:05,VALID,916.456,VALID,0,VALID,96.2609,VALID,0.107441,VALID,20.3043,VALID,324,VALID,0,
2012-05-12, 03:47:05,VALID,916.46,VALID,0,VALID,96.2533,VALID,0,VALID,20.2653,VALID,324,VALID,0,
2012-05-12, 03:48:05,VALID,916.429,VALID,0,VALID,96.2685,VALID,0,VALID,20.2848,VALID,324,VALID,0,
2012-05-12, 03:49:05,VALID,916.384,VALID,0,VALID,96.2914,VALID,0,VALID,20.2848,VALID,324,VALID,0,
2012-05-12, 03:50:05,VALID,916.392,VALID,0,VALID,96.2837,VALID,0,VALID,20.2442,VALID,324,VALID,0,
2012-05-12, 03:51:05,VALID,916.37,VALID,0,VALID,96.36,VALID,0.107441,VALID,20.3448,VALID,324,VALID,0,
2012-05-12, 03:52:05,VALID,916.354,VALID,0,VALID,96.2914,VALID,0.107441,VALID,20.3448,VALID,324,VALID,0,
2012-05-12, 03:53:05,VALID,916.321,VALID,0,VALID,96.2914,VALID,0.107441,VALID,20.3643,VALID,24,VALID,0,
2012-05-12, 03:54:05,VALID,916.315,VALID,0,VALID,96.2533,VALID,0,VALID,20.3027,VALID,14,VALID,0,
2012-05-12, 03:55:05,VALID,916.339,VALID,0,VALID,96.2456,VALID,0,VALID,20.3269,VALID,11,VALID,0,
2012-05-12, 03:56:05,VALID,916.335,VALID,0,VALID,96.2761,VALID,0,VALID,20.2848,VALID,11,VALID,0,
2012-05-12, 03:57:05,VALID,916.358,VALID,0,VALID,96.2685,VALID,0,VALID,20.3058,VALID,11,VALID,0,
2012-05-12, 03:58:05,VALID,916.383,VALID,0,VALID,96.2609,VALID,0,VALID,20.3253,VALID,11,VALID,0,
2012-05-12, 03:59:05,VALID,916.418,VALID,0,VALID,96.2609,VALID,0,VALID,20.3043,VALID,11,VALID,0,
2012-05-12, 04:00:05,VALID,916.391,VALID,0,VALID,96.2456,VALID,0,VALID,20.3464,VALID,11,VALID,0,
2012-05-12, 04:01:05,VALID,916.402,VALID,0,VALID,96.2837,VALID,0,VALID,20.3253,VALID,11,VALID,0,